GFSFLT1_prec_precacc24_105.txt.gz
Total_Precipitation_Accumulation
0.00 0.00 0.00 0.01 0.02 0.08 0.11 0.16 0.09 0.24 0.09 0.29 0.36 0.48 0.58 0.59 0.56 0.46 0.97 0.43 0.07 0.04 0.02 0.03 0.04 0.00 0.00 0.00 0.00 0.00 0.00 0.00
0.00 0.00 0.00 0.00 0.01 0.02 0.02 0.07 0.08 0.20 0.06 0.20 0.28 0.40 0.59 0.66 0.68 0.40 0.83 0.55 0.08 0.02 0.00 0.01 0.04 0.00 0.00 0.00 0.00 0.00 0.00 0.00
0.00 0.00 0.00 0.00 0.01 0.02 0.01 0.01 0.02 0.06 0.07 0.14 0.16 0.18 0.40 0.42 0.94 0.59 0.59 0.64 0.13 0.03 0.01 0.01 0.04 0.01 0.00 0.00 0.00 0.00 0.00 0.00
0.00 0.00 0.00 0.00 0.01 0.01 0.01 0.00 0.01 0.02 0.05 0.09 0.16 0.10 0.16 0.26 0.84 0.92 0.56 0.50 0.23 0.08 0.02 0.01 0.02 0.00 0.01 0.00 0.00 0.00 0.00 0.00
0.00 0.00 0.00 0.00 0.00 0.01 0.00 0.00 0.01 0.01 0.01 0.02 0.04 0.06 0.07 0.10 0.34 0.59 0.58 0.38 0.31 0.16 0.08 0.03 0.03 0.02 0.03 0.00 0.00 0.00 0.01 0.02
0.00 0.00 0.00 0.00 0.00 0.01 0.01 0.00 0.00 0.01 0.00 0.00 0.02 0.02 0.05 0.08 0.24 0.51 0.48 0.37 0.29 0.26 0.17 0.11 0.08 0.05 0.06 0.04 0.01 0.01 0.01 0.03
0.00 0.00 0.00 0.00 0.00 0.00 0.01 0.01 0.00 0.00 0.00 0.01 0.01 0.01 0.01 0.03 0.08 0.43 0.45 0.31 0.19 0.17 0.22 0.18 0.14 0.13 0.10 0.09 0.06 0.03 0.03 0.04
0.00 0.00 0.00 0.00 0.00 0.00 0.00 0.01 0.01 0.01 0.01 0.00 0.00 0.01 0.00 0.00 0.01 0.07 0.30 0.28 0.19 0.16 0.17 0.20 0.19 0.18 0.19 0.14 0.16 0.09 0.09 0.12
0.00 0.00 0.00 0.00 0.00 0.00 0.00 0.00 0.00 0.01 0.01 0.00 0.00 0.00 0.00 0.00 0.00 0.00 0.02 0.09 0.16 0.20 0.17 0.16 0.20 0.23 0.29 0.36 0.35 0.28 0.21 0.20
0.00 0.00 0.00 0.00 0.00 0.00 0.00 0.00 0.00 0.00 0.01 0.01 0.00 0.00 0.00 0.00 0.00 0.00 0.01 0.06 0.15 0.23 0.23 0.16 0.17 0.21 0.24 0.34 0.35 0.41 0.37 0.40
0.00 0.00 0.00 0.00 0.00 0.01 0.00 0.00 0.00 0.00 0.00 0.00 0.00 0.00 0.00 0.00 0.00 0.00 0.00 0.04 0.15 0.16 0.15 0.16 0.17 0.25 0.23 0.39 0.56 0.68 0.69 0.55
0.01 0.00 0.00 0.01 0.01 0.01 0.04 0.01 0.01 0.00 0.00 0.00 0.00 0.00 0.00 0.00 0.00 0.00 0.00 0.03 0.09 0.15 0.15 0.18 0.18 0.25 0.38 0.47 0.62 0.64 0.52 0.36
0.01 0.01 0.03 0.04 0.04 0.00 0.00 0.00 0.02 0.06 0.04 0.00 0.00 0.00 0.00 0.00 0.00 0.00 0.00 0.03 0.07 0.13 0.21 0.29 0.26 0.30 0.33 0.38 0.41 0.43 0.38 0.25
0.04 0.06 0.05 0.08 0.07 0.02 0.00 0.00 0.00 0.04 0.05 0.03 0.05 0.03 0.02 0.03 0.03 0.02 0.04 0.04 0.09 0.18 0.30 0.36 0.32 0.32 0.39 0.43 0.36 0.29 0.21 0.15
0.07 0.14 0.16 0.16 0.14 0.09 0.03 0.01 0.00 0.00 0.00 0.00 0.02 0.02 0.02 0.02 0.05 0.05 0.07 0.10 0.12 0.16 0.18 0.20 0.18 0.14 0.10 0.10 0.11 0.11 0.11 0.13
0.00 0.15 0.31 0.17 0.15 0.13 0.10 0.09 0.05 0.02 0.00 0.00 0.00 0.01 0.00 0.02 0.04 0.04 0.06 0.07 0.10 0.16 0.14 0.15 0.12 0.08 0.10 0.11 0.13 0.12 0.12 0.15
0.00 0.00 0.03 0.09 0.11 0.09 0.06 0.09 0.10 0.09 0.04 0.01 0.00 0.00 0.00 0.01 0.02 0.04 0.05 0.07 0.08 0.09 0.10 0.10 0.08 0.07 0.19 0.16 0.13 0.08 0.16 0.25
0.00 0.00 0.00 0.01 0.07 0.11 0.08 0.11 0.13 0.08 0.07 0.09 0.05 0.01 0.00 0.01 0.02 0.03 0.03 0.04 0.04 0.04 0.05 0.05 0.07 0.08 0.27 0.16 0.18 0.11 0.22 0.30
0.00 0.00 0.00 0.00 0.01 0.03 0.10 0.11 0.10 0.13 0.09 0.08 0.09 0.08 0.04 0.01 0.02 0.03 0.02 0.02 0.03 0.04 0.06 0.08 0.11 0.22 0.31 0.16 0.19 0.09 0.20 0.30

GFSFLT1_prec_precacc24_108.txt.gz
Total_Precipitation_Accumulation
0.00 0.00 0.00 0.00 0.01 0.05 0.08 0.02 0.03 0.12 0.08 0.27 0.35 0.47 0.58 0.59 0.60 0.58 1.11 0.56 0.34 0.19 0.05 0.03 0.05 0.01 0.00 0.00 0.00 0.00 0.00 0.00
0.00 0.00 0.00 0.00 0.01 0.01 0.02 0.03 0.04 0.04 0.04 0.13 0.25 0.40 0.59 0.66 0.71 0.51 0.98 0.62 0.18 0.22 0.05 0.02 0.05 0.01 0.00 0.00 0.00 0.00 0.00 0.00
0.00 0.00 0.00 0.00 0.01 0.01 0.00 0.01 0.02 0.03 0.04 0.07 0.11 0.18 0.41 0.42 0.94 0.61 0.64 0.72 0.16 0.12 0.04 0.01 0.04 0.01 0.00 0.00 0.00 0.00 0.00 0.00
0.00 0.00 0.00 0.00 0.00 0.01 0.00 0.00 0.01 0.02 0.03 0.07 0.15 0.10 0.16 0.26 0.83 0.95 0.62 0.59 0.28 0.08 0.05 0.02 0.02 0.00 0.01 0.00 0.00 0.00 0.00 0.00
0.00 0.00 0.00 0.00 0.00 0.01 0.00 0.00 0.01 0.01 0.01 0.02 0.04 0.06 0.08 0.10 0.34 0.62 0.71 0.52 0.39 0.17 0.10 0.03 0.03 0.02 0.03 0.00 0.00 0.00 0.00 0.01
0.00 0.00 0.00 0.00 0.00 0.00 0.01 0.00 0.00 0.01 0.00 0.00 0.02 0.02 0.06 0.08 0.24 0.57 0.65 0.65 0.44 0.30 0.18 0.12 0.08 0.05 0.06 0.04 0.01 0.01 0.01 0.01
0.00 0.00 0.00 0.00 0.00 0.00 0.01 0.01 0.00 0.00 0.00 0.01 0.01 0.01 0.02 0.04 0.09 0.50 0.68 0.60 0.46 0.31 0.28 0.21 0.15 0.13 0.10 0.09 0.05 0.02 0.02 0.03
0.00 0.00 0.00 0.00 0.00 0.00 0.00 0.01 0.01 0.01 0.01 0.00 0.00 0.01 0.01 0.01 0.01 0.11 0.46 0.63 0.44 0.35 0.28 0.26 0.21 0.18 0.19 0.15 0.15 0.06 0.06 0.10
0.00 0.00 0.00 0.00 0.00 0.00 0.00 0.00 0.00 0.01 0.01 0.00 0.00 0.00 0.00 0.00 0.00 0.01 0.05 0.30 0.33 0.38 0.32 0.27 0.29 0.28 0.31 0.35 0.30 0.21 0.12 0.11
0.00 0.00 0.00 0.00 0.00 0.00 0.00 0.00 0.00 0.01 0.01 0.01 0.00 0.00 0.00 0.00 0.00 0.00 0.02 0.12 0.33 0.36 0.40 0.31 0.31 0.34 0.32 0.37 0.34 0.34 0.22 0.24
0.00 0.00 0.00 0.00 0.00 0.01 0.00 0.00 0.00 0.00 0.00 0.00 0.00 0.00 0.00 0.00 0.01 0.01 0.01 0.06 0.19 0.20 0.25 0.31 0.31 0.34 0.32 0.35 0.31 0.30 0.35 0.31
0.01 0.00 0.00 0.02 0.02 0.01 0.01 0.00 0.01 0.00 0.00 0.00 0.00 0.00 0.00 0.00 0.00 0.01 0.01 0.02 0.10 0.22 0.18 0.21 0.27 0.31 0.43 0.46 0.47 0.44 0.41 0.37
0.01 0.02 0.03 0.05 0.06 0.03 0.01 0.00 0.01 0.03 0.03 0.00 0.00 0.00 0.00 0.00 0.00 0.00 0.00 0.01 0.02 0.10 0.21 0.21 0.23 0.36 0.40 0.53 0.50 0.47 0.42 0.30
0.04 0.06 0.07 0.12 0.11 0.05 0.01 0.00 0.00 0.01 0.02 0.03 0.03 0.00 0.00 0.00 0.00 0.00 0.00 0.00 0.01 0.04 0.08 0.15 0.22 0.36 0.44 0.47 0.42 0.28 0.16 0.09
0.07 0.14 0.16 0.18 0.20 0.16 0.06 0.01 0.00 0.00 0.00 0.00 0.01 0.01 0.01 0.00 0.01 0.01 0.02 0.04 0.04 0.04 0.04 0.05 0.08 0.13 0.10 0.12 0.09 0.07 0.07 0.11
0.03 0.15 0.31 0.17 0.17 0.17 0.12 0.10 0.05 0.02 0.00 0.00 0.00 0.01 0.00 0.01 0.01 0.02 0.03 0.04 0.05 0.05 0.05 0.06 0.07 0.06 0.08 0.09 0.10 0.08 0.08 0.12
0.07 0.02 0.03 0.09 0.12 0.10 0.06 0.09 0.11 0.10 0.04 0.01 0.00 0.00 0.00 0.00 0.01 0.01 0.02 0.03 0.04 0.04 0.05 0.05 0.05 0.05 0.13 0.13 0.11 0.05 0.13 0.21
0.02 0.03 0.04 0.01 0.07 0.11 0.09 0.11 0.13 0.08 0.07 0.11 0.07 0.01 0.00 0.00 0.01 0.01 0.01 0.02 0.02 0.02 0.02 0.03 0.04 0.05 0.20 0.11 0.13 0.07 0.19 0.27
0.00 0.00 0.01 0.00 0.01 0.03 0.13 0.13 0.11 0.14 0.12 0.10 0.09 0.09 0.04 0.00 0.01 0.02 0.02 0.02 0.02 0.02 0.03 0.05 0.07 0.15 0.23 0.12 0.15 0.08 0.19 0.29

GFSFLT1_prec_precacc24_111.txt.gz
Total_Precipitation_Accumulation
0.00 0.00 0.00 0.00 0.01 0.01 0.01 0.00 0.02 0.03 0.04 0.24 0.31 0.39 0.54 0.55 0.56 0.57 1.13 0.69 0.64 0.57 0.18 0.04 0.06 0.03 0.00 0.00 0.00 0.00 0.00 0.00
0.00 0.00 0.00 0.00 0.01 0.01 0.01 0.00 0.01 0.02 0.03 0.12 0.24 0.35 0.55 0.64 0.69 0.51 1.03 0.87 0.50 0.62 0.59 0.15 0.07 0.02 0.00 0.00 0.00 0.00 0.00 0.00
0.00 0.00 0.00 0.00 0.01 0.01 0.00 0.01 0.00 0.01 0.01 0.04 0.09 0.18 0.40 0.41 0.94 0.61 0.66 0.79 0.28 0.27 0.27 0.19 0.13 0.03 0.01 0.00 0.00 0.00 0.00 0.00
0.00 0.00 0.00 0.00 0.00 0.01 0.00 0.00 0.01 0.01 0.01 0.04 0.07 0.10 0.16 0.25 0.83 0.95 0.63 0.63 0.37 0.17 0.12 0.10 0.13 0.03 0.01 0.00 0.00 0.00 0.00 0.00
0.00 0.00 0.00 0.00 0.00 0.01 0.00 0.00 0.01 0.01 0.00 0.01 0.02 0.06 0.08 0.10 0.34 0.62 0.72 0.54 0.49 0.28 0.18 0.11 0.09 0.03 0.02 0.00 0.00 0.00 0.00 0.00
0.00 0.00 0.00 0.00 0.00 0.00 0.01 0.00 0.00 0.01 0.00 0.00 0.02 0.02 0.06 0.08 0.25 0.58 0.65 0.68 0.58 0.45 0.28 0.21 0.11 0.08 0.06 0.04 0.01 0.01 0.01 0.01
0.00 0.00 0.00 0.00 0.00 0.00 0.01 0.01 0.00 0.00 0.00 0.01 0.01 0.01 0.02 0.04 0.09 0.51 0.69 0.65 0.66 0.53 0.39 0.29 0.17 0.14 0.11 0.09 0.05 0.02 0.02 0.02
0.00 0.00 0.00 0.00 0.00 0.00 0.00 0.01 0.01 0.01 0.01 0.00 0.00 0.01 0.01 0.01 0.01 0.11 0.47 0.72 0.61 0.62 0.39 0.33 0.25 0.19 0.19 0.15 0.15 0.06 0.05 0.09
0.00 0.00 0.00 0.00 0.00 0.00 0.00 0.00 0.00 0.01 0.01 0.00 0.00 0.00 0.00 0.01 0.00 0.01 0.06 0.38 0.49 0.61 0.52 0.33 0.31 0.29 0.31 0.35 0.30 0.20 0.10 0.08
0.00 0.00 0.00 0.00 0.00 0.00 0.00 0.00 0.00 0.01 0.01 0.01 0.00 0.00 0.00 0.00 0.00 0.01 0.03 0.16 0.53 0.56 0.70 0.46 0.36 0.35 0.33 0.37 0.34 0.34 0.21 0.17
0.00 0.00 0.00 0.00 0.01 0.01 0.01 0.00 0.00 0.01 0.01 0.01 0.00 0.00 0.00 0.00 0.01 0.01 0.02 0.10 0.33 0.37 0.45 0.50 0.44 0.44 0.36 0.37 0.33 0.28 0.27 0.16
0.01 0.00 0.00 0.02 0.02 0.02 0.00 0.00 0.02 0.02 0.00 0.00 0.00 0.00 0.00 0.00 0.00 0.01 0.01 0.04 0.16 0.33 0.23 0.31 0.40 0.40 0.34 0.28 0.30 0.33 0.34 0.29
0.01 0.02 0.04 0.06 0.07 0.04 0.03 0.05 0.05 0.01 0.00 0.00 0.00 0.00 0.00 0.00 0.00 0.01 0.01 0.02 0.06 0.19 0.37 0.31 0.31 0.36 0.30 0.30 0.37 0.48 0.44 0.32
0.04 0.06 0.09 0.15 0.15 0.11 0.08 0.05 0.02 0.01 0.00 0.00 0.00 0.00 0.00 0.00 0.00 0.00 0.01 0.01 0.02 0.02 0.11 0.23 0.24 0.25 0.23 0.20 0.37 0.34 0.23 0.16
0.07 0.14 0.16 0.20 0.25 0.26 0.16 0.06 0.01 0.00 0.00 0.00 0.00 0.00 0.00 0.00 0.00 0.00 0.00 0.01 0.01 0.01 0.01 0.03 0.08 0.14 0.17 0.18 0.12 0.10 0.12 0.17
0.06 0.16 0.31 0.19 0.23 0.23 0.19 0.16 0.07 0.02 0.00 0.00 0.00 0.01 0.00 0.00 0.00 0.00 0.00 0.01 0.01 0.02 0.03 0.04 0.04 0.06 0.10 0.17 0.17 0.12 0.13 0.21
0.12 0.08 0.10 0.13 0.16 0.15 0.07 0.10 0.12 0.10 0.04 0.01 0.00 0.00 0.00 0.00 0.00 0.00 0.00 0.01 0.02 0.02 0.03 0.03 0.03 0.03 0.14 0.17 0.17 0.14 0.18 0.22
0.03 0.04 0.13 0.10 0.14 0.15 0.12 0.11 0.13 0.08 0.07 0.11 0.07 0.01 0.00 0.00 0.00 0.00 0.00 0.01 0.02 0.02 0.02 0.02 0.03 0.03 0.16 0.11 0.16 0.10 0.20 0.24
0.00 0.00 0.02 0.02 0.04 0.07 0.14 0.15 0.11 0.14 0.12 0.10 0.10 0.09 0.04 0.00 0.00 0.01 0.01 0.02 0.02 0.02 0.02 0.04 0.05 0.12 0.17 0.08 0.10 0.05 0.14 0.23

GFSFLT1_prec_precacc24_114.txt.gz
Total_Precipitation_Accumulation
0.00 0.00 0.00 0.00 0.00 0.00 0.00 0.00 0.01 0.00 0.02 0.05 0.13 0.21 0.35 0.40 0.50 0.57 1.13 0.71 0.67 0.69 0.31 0.15 0.08 0.05 0.02 0.00 0.01 0.01 0.00 0.00
0.00 0.00 0.00 0.00 0.00 0.01 0.00 0.00 0.01 0.00 0.01 0.04 0.14 0.24 0.44 0.54 0.65 0.51 1.04 0.87 0.56 0.81 0.92 0.34 0.11 0.04 0.01 0.00 0.01 0.01 0.00 0.00
0.00 0.00 0.00 0.00 0.00 0.01 0.00 0.00 0.00 0.01 0.01 0.02 0.07 0.14 0.33 0.36 0.91 0.61 0.66 0.80 0.30 0.35 0.64 0.56 0.29 0.05 0.02 0.00 0.00 0.01 0.00 0.00
0.00 0.00 0.00 0.00 0.00 0.00 0.00 0.00 0.01 0.01 0.01 0.03 0.06 0.06 0.14 0.24 0.82 0.95 0.64 0.64 0.38 0.19 0.29 0.36 0.36 0.14 0.03 0.00 0.00 0.00 0.00 0.00
0.00 0.00 0.00 0.00 0.00 0.00 0.00 0.00 0.01 0.01 0.00 0.01 0.02 0.05 0.08 0.10 0.35 0.63 0.73 0.55 0.50 0.31 0.27 0.32 0.38 0.19 0.07 0.01 0.00 0.00 0.00 0.00
0.00 0.00 0.00 0.00 0.00 0.00 0.00 0.00 0.00 0.01 0.00 0.00 0.02 0.02 0.06 0.09 0.26 0.58 0.67 0.69 0.59 0.54 0.48 0.49 0.30 0.33 0.14 0.06 0.01 0.00 0.00 0.01
0.00 0.00 0.00 0.00 0.00 0.00 0.01 0.01 0.00 0.00 0.00 0.01 0.01 0.01 0.02 0.05 0.10 0.51 0.70 0.66 0.67 0.58 0.58 0.62 0.44 0.27 0.31 0.13 0.08 0.03 0.02 0.02
0.00 0.00 0.00 0.00 0.00 0.00 0.00 0.01 0.01 0.01 0.01 0.01 0.01 0.01 0.01 0.02 0.02 0.11 0.47 0.73 0.64 0.69 0.56 0.61 0.50 0.33 0.34 0.24 0.18 0.09 0.05 0.08
0.00 0.00 0.00 0.00 0.00 0.00 0.00 0.00 0.00 0.01 0.01 0.01 0.00 0.00 0.01 0.01 0.01 0.02 0.07 0.38 0.50 0.71 0.71 0.57 0.53 0.44 0.45 0.51 0.39 0.29 0.11 0.08
0.00 0.00 0.00 0.00 0.00 0.00 0.00 0.00 0.00 0.01 0.01 0.01 0.00 0.00 0.00 0.01 0.01 0.01 0.03 0.16 0.54 0.65 0.88 0.73 0.50 0.53 0.47 0.50 0.48 0.48 0.28 0.17
0.00 0.00 0.00 0.00 0.01 0.01 0.01 0.01 0.00 0.01 0.02 0.02 0.01 0.00 0.00 0.01 0.01 0.01 0.02 0.10 0.35 0.44 0.57 0.75 0.59 0.51 0.45 0.43 0.38 0.31 0.29 0.16
0.01 0.00 0.00 0.02 0.02 0.02 0.01 0.01 0.03 0.05 0.03 0.01 0.00 0.00 0.00 0.00 0.01 0.01 0.01 0.05 0.20 0.42 0.28 0.45 0.56 0.44 0.37 0.30 0.26 0.23 0.20 0.18
0.01 0.02 0.04 0.07 0.07 0.05 0.04 0.07 0.07 0.06 0.02 0.00 0.00 0.00 0.00 0.00 0.00 0.01 0.01 0.03 0.09 0.26 0.44 0.37 0.42 0.43 0.35 0.26 0.19 0.17 0.15 0.16
0.04 0.06 0.09 0.15 0.17 0.14 0.10 0.10 0.07 0.04 0.00 0.00 0.00 0.00 0.00 0.00 0.00 0.00 0.01 0.01 0.04 0.08 0.24 0.35 0.37 0.32 0.29 0.17 0.19 0.16 0.13 0.12
0.07 0.14 0.16 0.21 0.28 0.30 0.23 0.12 0.04 0.01 0.00 0.00 0.00 0.00 0.00 0.00 0.00 0.00 0.00 0.01 0.01 0.04 0.07 0.11 0.20 0.24 0.24 0.22 0.14 0.11 0.10 0.14
0.06 0.16 0.31 0.20 0.24 0.28 0.24 0.22 0.13 0.04 0.01 0.01 0.00 0.00 0.00 0.00 0.00 0.00 0.00 0.00 0.00 0.01 0.01 0.04 0.05 0.13 0.17 0.21 0.23 0.15 0.13 0.18
0.12 0.08 0.10 0.13 0.19 0.23 0.19 0.22 0.20 0.13 0.05 0.02 0.00 0.00 0.00 0.00 0.00 0.00 0.00 0.00 0.01 0.01 0.01 0.01 0.01 0.02 0.17 0.17 0.20 0.22 0.20 0.20
0.03 0.04 0.13 0.11 0.21 0.23 0.32 0.31 0.27 0.14 0.09 0.12 0.07 0.01 0.00 0.00 0.00 0.00 0.00 0.00 0.00 0.01 0.01 0.01 0.01 0.02 0.10 0.10 0.18 0.15 0.27 0.32
0.00 0.00 0.02 0.02 0.06 0.16 0.23 0.34 0.26 0.17 0.13 0.11 0.11 0.10 0.05 0.00 0.00 0.00 0.00 0.00 0.01 0.01 0.01 0.02 0.04 0.08 0.12 0.07 0.12 0.06 0.17 0.23